LDPE-1

Last updated on Sat Jun 14 2025 00:02:48 GMT+0000 (Coordinated Universal Time)

1 49818U 21118B 25164.33503230 -.00000113 00000+0 00000+0 0 9994 2 49818 2.7807 83.4613 0007216 0.7325 190.5572 1.00655284 12939
UTC large
Height (km)
Speed (km/s)
/
Latitude / Longitude
Inclination (degrees)
Orbital Period (minutes)
Azimuth
Elevation
Range (km)
Doppler Factor

Next 0 passes for location: London (51.5072 / 0.1276)

Sorry there are no passes over London.